| time (UTC) | temp F | wind direction | speed MPH | gust MPH | rain 1hr in | rain 24hr in | rain mn in | humidity % | barometer mb |
| 20260504151034 | 76 | 191 | 0.0 | 3.0 | 0.00 | 0.00 | 0.00 | 60 | 1016.8 |
| 20260504141132 | 72 | 203 | 0.0 | 3.0 | 0.00 | 0.00 | 0.00 | 65 | 1016.8 |
| 20260504141033 | 72 | 225 | 1.0 | 2.0 | 0.00 | 0.00 | 0.00 | 65 | 1016.8 |
| 20260504120236 | 57 | 225 | 0.0 | 0.0 | 0.00 | 0.00 | 0.00 | 88 | 1016.8 |
| 20260504110433 | 58 | 225 | 0.0 | 0.0 | 0.00 | 0.00 | 0.00 | 87 | 1016.5 |
| 20260504081134 | 62 | 225 | 0.0 | 0.0 | 0.00 | 0.00 | 0.00 | 71 | 1017.4 |
| 20260504080134 | 63 | 225 | 0.0 | 0.0 | 0.00 | 0.00 | 0.00 | 69 | 1017.7 |
| 20260504050533 | 61 | 225 | 0.0 | 0.0 | 0.00 | 0.00 | 0.00 | 72 | 1019.3 |
| 20260504045537 | 61 | 225 | 0.0 | 0.0 | 0.00 | 0.00 | 0.00 | 72 | 1019.4 |
| 20260504045439 | 61 | 225 | 0.0 | 0.0 | 0.00 | 0.00 | 0.00 | 72 | 1019.4 |
| 20260504044439 | 62 | 225 | 0.0 | 0.0 | 0.00 | 0.00 | 0.00 | 70 | 1019.5 |
| 20260504042440 | 63 | 225 | 0.0 | 0.0 | 0.00 | 0.00 | 0.00 | 68 | 1019.5 |
| 20260504041440 | 63 | 225 | 0.0 | 0.0 | 0.00 | 0.00 | 0.00 | 66 | 1019.3 |
| 20260504041340 | 63 | 225 | 0.0 | 0.0 | 0.00 | 0.00 | 0.00 | 66 | 1019.3 |
| 20260504040339 | 64 | 225 | 0.0 | 0.0 | 0.00 | 0.00 | 0.00 | 64 | 1019.3 |
| 20260504035340 | 65 | 225 | 0.0 | 0.0 | 0.00 | 0.00 | 0.00 | 62 | 1019.5 |
| 20260504034338 | 65 | 225 | 0.0 | 0.0 | 0.00 | 0.00 | 0.00 | 61 | 1019.6 |
| 20260504033437 | 65 | 225 | 0.0 | 0.0 | 0.00 | 0.00 | 0.00 | 60 | 1019.6 |
| 20260504031441 | 66 | 225 | 0.0 | 0.0 | 0.00 | 0.00 | 0.00 | 59 | 1019.4 |
| 20260504030440 | 66 | 225 | 0.0 | 0.0 | 0.00 | 0.00 | 0.00 | 57 | 1019.3 |
| 20260504025440 | 67 | 225 | 0.0 | 0.0 | 0.00 | 0.00 | 0.00 | 55 | 1019.4 |
| 20260504023537 | 68 | 225 | 0.0 | 0.0 | 0.00 | 0.00 | 0.00 | 54 | 1019.5 |
| 20260504022540 | 68 | 225 | 0.0 | 0.0 | 0.00 | 0.00 | 0.00 | 53 | 1019.2 |
| 20260504021637 | 68 | 202 | 0.0 | 1.0 | 0.00 | 0.00 | 0.00 | 54 | 1019.4 |
| 20260504020639 | 69 | 225 | 0.0 | 1.0 | 0.00 | 0.00 | 0.00 | 53 | 1019.3 |
| 20260504015639 | 69 | 202 | 0.0 | 1.0 | 0.00 | 0.00 | 0.00 | 52 | 1019.2 |
| 20260504014638 | 69 | 225 | 0.0 | 0.0 | 0.00 | 0.00 | 0.00 | 52 | 1019.3 |
| 20260504013639 | 70 | 225 | 0.0 | 1.0 | 0.00 | 0.00 | 0.00 | 50 | 1019.2 |
| 20260504011741 | 70 | 225 | 0.0 | 1.0 | 0.00 | 0.00 | 0.00 | 48 | 1019.2 |
| 20260504010837 | 71 | 180 | 0.0 | 0.0 | 0.00 | 0.00 | 0.00 | 48 | 1019.1 |
| 20260504005840 | 71 | 202 | 0.0 | 1.0 | 0.00 | 0.00 | 0.00 | 48 | 1019.1 |
| 20260504004939 | 72 | 225 | 0.0 | 0.0 | 0.00 | 0.00 | 0.00 | 47 | 1019.1 |
| 20260504003939 | 72 | 225 | 0.0 | 0.0 | 0.00 | 0.00 | 0.00 | 46 | 1019.1 |
| 20260504002941 | 73 | 215 | 0.0 | 2.0 | 0.00 | 0.00 | 0.00 | 44 | 1019.0 |
| 20260504001940 | 73 | 122 | 0.0 | 0.0 | 0.00 | 0.00 | 0.00 | 43 | 1019.0 |
| 20260504000940 | 74 | 224 | 1.0 | 4.0 | 0.00 | 0.00 | 0.00 | 42 | 1019.1 |
| 20260504000037 | 74 | 217 | 0.0 | 2.0 | 0.00 | 0.00 | 0.00 | 40 | 1019.0 |
| 20260503235040 | 75 | 195 | 1.0 | 3.0 | 0.00 | 0.00 | 0.00 | 40 | 1019.1 |
| 20260503233138 | 76 | 178 | 0.0 | 1.0 | 0.00 | 0.00 | 0.00 | 38 | 1019.3 |
| 20260503232139 | 76 | 222 | 0.0 | 2.0 | 0.00 | 0.00 | 0.00 | 38 | 1019.2 |
| 20260503232037 | 76 | 225 | 1.0 | 3.0 | 0.00 | 0.00 | 0.00 | 39 | 1019.2 |
| 20260503231039 | 77 | 220 | 1.0 | 4.0 | 0.00 | 0.00 | 0.00 | 38 | 1019.2 |
| 20260503230040 | 77 | 258 | 0.0 | 1.0 | 0.00 | 0.00 | 0.00 | 38 | 1019.2 |
| 20260503225039 | 77 | 221 | 1.0 | 3.0 | 0.00 | 0.00 | 0.00 | 37 | 1019.3 |
| 20260503224038 | 77 | 225 | 0.0 | 1.0 | 0.00 | 0.00 | 0.00 | 37 | 1019.4 |
| 20260503223939 | 77 | 225 | 0.0 | 2.0 | 0.00 | 0.00 | 0.00 | 36 | 1019.5 |
| 20260503222038 | 78 | 243 | 0.0 | 0.0 | 0.00 | 0.00 | 0.00 | 36 | 1019.6 |
| 20260503221040 | 78 | 179 | 0.0 | 0.0 | 0.00 | 0.00 | 0.00 | 36 | 1019.6 |
| 20260503220139 | 79 | 66 | 0.0 | 2.0 | 0.00 | 0.00 | 0.00 | 35 | 1019.6 |
| 20260503215238 | 80 | 90 | 0.0 | 0.0 | 0.00 | 0.00 | 0.00 | 34 | 1019.8 |
| 20260503214240 | 79 | 22 | 0.0 | 0.0 | 0.00 | 0.00 | 0.00 | 34 | 1020.1 |
| 20260503211239 | 82 | 200 | 0.0 | 2.0 | 0.00 | 0.00 | 0.00 | 31 | 1020.3 |
| 20260503210241 | 82 | 66 | 0.0 | 1.0 | 0.00 | 0.00 | 0.00 | 31 | 1020.6 |
| 20260503205240 | 82 | 52 | 1.0 | 3.0 | 0.00 | 0.00 | 0.00 | 31 | 1020.6 |
| 20260503204339 | 81 | 81 | 0.0 | 4.0 | 0.00 | 0.00 | 0.00 | 32 | 1020.6 |
| 20260503203340 | 81 | 56 | 0.0 | 3.0 | 0.00 | 0.00 | 0.00 | 32 | 1021.0 |
| 20260503202341 | 81 | 169 | 0.0 | 2.0 | 0.00 | 0.00 | 0.00 | 33 | 1021.1 |
| 20260503201339 | 81 | 22 | 1.0 | 3.0 | 0.00 | 0.00 | 0.00 | 33 | 1021.3 |
| 20260503200338 | 81 | 214 | 2.0 | 3.0 | 0.00 | 0.00 | 0.00 | 31 | 1021.5 |
| 20260503195438 | 81 | 224 | 2.0 | 5.0 | 0.00 | 0.00 | 0.00 | 32 | 1021.4 |
| 20260503195340 | 81 | 208 | 1.0 | 4.0 | 0.00 | 0.00 | 0.00 | 32 | 1021.5 |
| 20260503192341 | 81 | 214 | 2.0 | 4.0 | 0.00 | 0.00 | 0.00 | 32 | 1022.1 |
| 20260503191339 | 80 | 204 | 0.0 | 0.0 | 0.00 | 0.00 | 0.00 | 31 | 1022.2 |
| 20260503185339 | 80 | 220 | 1.0 | 3.0 | 0.00 | 0.00 | 0.00 | 29 | 1022.4 |
| 20260503184340 | 80 | 12 | 2.0 | 4.0 | 0.00 | 0.00 | 0.00 | 29 | 1022.6 |
| 20260503183339 | 80 | 68 | 0.0 | 2.0 | 0.00 | 0.00 | 0.00 | 29 | 1022.8 |
| 20260503182341 | 80 | 132 | 0.0 | 0.0 | 0.00 | 0.00 | 0.00 | 29 | 1022.8 |
| 20260503180338 | 80 | 83 | 0.0 | 3.0 | 0.00 | 0.00 | 0.00 | 30 | 1023.1 |
| 20260503174339 | 80 | 185 | 0.0 | 1.0 | 0.00 | 0.00 | 0.00 | 30 | 1023.3 |
| 20260503173341 | 79 | 90 | 0.0 | 0.0 | 0.00 | 0.00 | 0.00 | 30 | 1023.6 |
| 20260503172438 | 79 | 190 | 0.0 | 2.0 | 0.00 | 0.00 | 0.00 | 31 | 1023.6 |
| 20260503171439 | 78 | 16 | 2.0 | 4.0 | 0.00 | 0.00 | 0.00 | 32 | 1023.8 |
| 20260503170442 | 77 | 215 | 2.0 | 8.0 | 0.00 | 0.00 | 0.00 | 33 | 1023.8 |